Location: Vancouver
(49.2500°N, 123.1330°W)
Time: 10:30:08
(UTC-07:00)

YAOGAN 6 - Visible Passes

Search period start: 25 May 2015 00:00
Search period end: 04 June 2015 00:00
Orbit: 474 x 519 km, 97.2° (Epoch: 25 May)

Date Brightness Start Highest point End Pass type
(mag) Time Alt. Az. Time Alt. Az. Time Alt. Az.
25 May 2.8 22:24:51 16° SSE 22:27:33 55° ENE 22:31:04 10° N visible
25 May 5.2 23:59:57 10° WSW 00:01:40 13° W 00:03:15 10° WNW visible
26 May 3.6 22:03:53 11° SE 22:06:54 32° ENE 22:10:08 10° N visible
26 May 4.6 23:38:29 13° SW 23:40:44 21° W 23:43:27 10° NW visible
27 May 4.3 21:43:39 10° ESE 21:46:17 20° ENE 21:49:00 10° NNE visible
27 May 3.8 23:17:31 17° SSW 23:19:51 34° W 23:23:09 10° NNW visible
28 May 2.9 22:56:32 18° S 22:59:02 61° W 23:02:35 10° NNW visible
29 May 2.5 22:35:33 16° SSE 22:38:17 75° ENE 22:41:51 10° N visible
30 May 3.2 22:14:33 12° SE 22:17:34 42° ENE 22:20:59 10° N visible
30 May 5.0 23:49:16 10° SW 23:51:33 16° W 23:53:45 10° NW visible
31 May 3.9 21:53:58 10° SE 21:56:55 25° ENE 21:59:55 10° N visible
31 May 4.3 23:28:09 13° SSW 23:30:37 26° W 23:33:38 10° NW visible
01 Jun 3.4 23:07:09 16° SSW 23:09:44 44° W 23:13:09 10° NNW visible
02 Jun 2.6 22:46:09 16° S 22:48:55 80° WSW 22:52:29 10° NNW visible
03 Jun 2.8 22:25:08 13° SSE 22:28:10 57° ENE 22:31:40 10° N visible
